CZ-4B DEB, 43661

Orbit data source: Space-Track

CZ-4B DEB, 43661 is space debris in SSO originally from a launch on Wed, 24 Oct 2018 UTC launched from the Taiyaun Space Center, China (TSC). Debris objects in space refer to the collection of defunct objects orbiting the Earth. Examples of debris include non-operational satellites, rocket bodies, and fragments generated from explosions, collisions, or faulty payload assembly.

Loading next visibility...
Identifier
43661, 2018-081E
Orbit
SSO
Country
Flag of CNCN / PRC
Related business
Manufacturer
SAST
Mission
Spacecraft
Bus & Motor
Unknown
Mass
Unknown
Launch date (UTC)
2018-10-24 (7 years ago)
Launch vehicle
Unknown
Launch site
Taiyaun Space Center, China (TSC)
Object type
Payload
Rocket body
Debris
Shape & HBR
Unknown shape, 0.1 m
Radar Cross Section
Small (<0.1 m²)

Expand to show TLE details & history
Last TLE update: 5 hours ago

TLE from 5 hours ago
0 CZ-4B DEB
1 43661U 18081E   26037.62528778  .00000120  00000-0  13388-3 0  9990
2 43661  99.1400  70.0707 0012511 334.4379  25.6160 13.89433213369475
Epoch: 2026-02-06T15:00Z
TLE epoch observation values (Epoch: 2026-02-06T15:00:24.864Z)
Latitude
0.00007°
Longitude
68.20661°
Altitude
925.232 km
Speed
7.393 km/s
True Right ascension
04h 40m 16s
True Declination
0° 00' 00"
Sunlit
Object was in daylight at epoch
Visualization orbit readout
Latitude
Unknown
Longitude
Unknown
Altitude
Unknown
Speed
Unknown
Apparent Right ascension
Unknown
Apparent Declination
Unknown
Sunlit
N/A
Visualization observer readout
Local Sidereal Time
22:26:36
Azimuth
Unknown
Elevation
Unknown
Doppler factor
Unknown
Orbital elements
Apogee altitude
936.979 km
Perigee altitude
918.698 km
Semi-major axis
7,305.975 km
Eccentricity
0.00125
Inclination
99.14°
RAAN
70.0707°
Arg. of periapsis
334.4379°
True anomaly
25.67807°
Mean anomaly
25.616°
Eccentric anomaly
25.64703°
Mean motion
3.47557 °/min
Orbital period
103.58 mins
BSTAR
0.00013388
Loading maneuver chart data...
Computing Atmospheric mass density...
Loading historical data...
Loading historical data...
Loading historical data...
Loading historical data...
Loading historical data...
Loading historical data...
Loading historical data...

Documentation

Showing up to 5 results
|